Date String (YYYY-MM-DD hh:mm:ss) UTC,Instrument flags,Ambient pressure (hPa),Sample flow (lpm),Bypass flow (lpm),Sample temperature (°C),Ambient temperature (°C),ASC tube jacket temperature (°C),LED temperature (°C),Box temperature (°C),Sample RH (%),Span deviation,Mass concentration (μg/m³),Mass concentration (μg/m³),Mass concentration (μg/m³)
DateTimeUTC,F1_M11,P_M11,Q1_M11,Q2_M11,T1_M11,T2_M11,T3_M11,T4_M11,T5_M11,U1_M11,ZSPAN_M11,X2_M11,X0_M11,X1_M11
2022-11-20 22:00:00,,0827.9,5.00,0.00,27.8,26.6,00.0,36.6,29.7,08.3,0000.0,0007.93,0011.47,0007.54
2022-11-20 22:01:00,,0828.0,5.00,0.00,27.8,26.6,00.0,36.6,29.7,08.6,0000.0,0007.89,0011.68,0007.50
2022-11-20 22:02:00,,0827.9,5.00,0.00,27.8,26.6,00.0,36.6,29.7,08.8,0000.0,0007.88,0011.76,0007.47
2022-11-20 22:03:00,,0828.0,5.00,0.00,27.8,26.7,00.0,36.6,29.7,08.6,0000.0,0007.85,0012.37,0007.44
2022-11-20 22:04:00,,0827.9,5.00,0.00,27.8,26.7,00.0,36.7,29.7,08.6,0000.0,0007.85,0012.50,0007.45
2022-11-20 22:05:00,,0827.9,5.00,0.00,27.8,26.7,00.0,36.7,29.7,08.6,0000.0,0007.82,0012.44,0007.46
2022-11-20 22:06:00,,0827.9,4.99,0.00,27.9,26.7,00.0,36.7,29.7,08.5,0000.0,0007.83,0013.14,0007.46
2022-11-20 22:07:00,,0827.9,4.99,0.00,27.8,26.7,00.0,36.7,29.8,08.5,0000.0,0007.83,0012.93,0007.44
2022-11-20 22:08:00,,0828.0,5.00,0.00,27.9,26.7,00.0,36.7,29.8,08.5,0000.0,0007.82,0012.93,0007.42
2022-11-20 22:09:00,,0827.9,5.01,0.00,27.9,26.7,00.0,36.7,29.8,08.6,0000.0,0007.80,0013.43,0007.39
2022-11-20 22:10:00,,0827.9,5.00,0.00,27.9,26.7,00.0,36.7,29.7,08.6,0000.0,0007.79,0013.92,0007.38
2022-11-20 22:11:00,,0828.0,5.00,0.00,27.9,26.7,00.0,36.7,29.8,08.5,0000.0,0007.75,0014.47,0007.36
2022-11-20 22:12:00,,0827.9,5.00,0.00,27.9,26.7,00.0,36.7,29.7,08.5,0000.0,0007.73,0014.23,0007.35
2022-11-20 22:13:00,,0827.9,4.99,0.00,27.9,26.7,00.0,36.7,29.7,08.4,0000.0,0007.69,0014.01,0007.35
2022-11-20 22:14:00,,0827.9,4.99,0.00,27.9,26.7,00.0,36.7,29.8,08.4,0000.4,0007.66,0013.64,0007.33
2022-11-20 22:15:00,,0828.0,5.01,0.00,27.9,26.7,00.0,36.7,29.8,08.4,0000.0,0007.63,0013.41,0007.31
2022-11-20 22:16:00,,0827.9,5.01,0.00,27.9,26.7,00.0,36.7,29.8,08.2,0000.0,0007.63,0013.46,0007.28
2022-11-20 22:17:00,,0827.9,5.01,0.00,27.9,26.7,00.0,36.8,29.8,08.1,0000.0,0007.62,0012.54,0007.25
2022-11-20 22:18:00,,0827.9,5.00,0.00,27.9,26.7,00.0,36.8,29.8,08.1,0000.0,0007.57,0011.91,0007.24
2022-11-20 22:19:00,,0828.0,5.00,0.00,27.9,26.7,00.0,36.8,29.8,08.3,0000.0,0007.56,0011.90,0007.22
2022-11-20 22:20:00,,0828.0,4.99,0.00,27.9,26.7,00.0,36.8,29.8,08.2,0000.0,0007.52,0011.48,0007.19
2022-11-20 22:21:00,,0827.9,5.00,0.00,28.0,26.7,00.0,36.8,29.8,08.0,0000.0,0007.47,0010.75,0007.16
2022-11-20 22:22:00,,0827.9,5.00,0.00,28.0,26.7,00.0,36.8,29.8,07.9,0000.0,0007.44,0010.45,0007.14
2022-11-20 22:23:00,,0828.0,5.00,0.00,28.0,26.7,00.0,36.8,29.8,08.0,0000.0,0007.45,0010.74,0007.11
2022-11-20 22:24:00,,0827.9,5.00,0.00,28.0,26.7,00.0,36.8,29.8,08.0,0000.0,0007.44,0010.74,0007.09
2022-11-20 22:25:00,,0827.9,5.00,0.00,28.0,26.7,00.0,36.8,29.8,08.0,0000.0,0007.45,0010.60,0007.07
2022-11-20 22:26:00,,0827.9,5.01,0.00,28.0,26.7,00.0,36.8,29.8,07.7,0000.0,0007.40,0010.36,0007.02
2022-11-20 22:27:00,,0828.0,5.01,0.00,28.0,26.7,00.0,36.8,29.8,07.6,0000.0,0007.31,0010.26,0006.97
2022-11-20 22:28:00,,0828.0,4.98,0.00,28.0,26.7,00.0,36.8,29.8,07.4,0000.0,0007.23,0010.36,0006.90
2022-11-20 22:29:00,,0827.9,5.02,0.00,28.0,26.7,00.0,36.8,29.8,07.4,0000.0,0007.18,0010.40,0006.84
2022-11-20 22:30:00,,0827.9,4.98,0.00,28.0,26.7,00.0,36.8,29.8,07.4,0000.0,0007.12,0010.35,0006.78
2022-11-20 22:31:00,,0827.9,5.00,0.00,28.0,26.7,00.0,36.8,29.8,07.3,0000.0,0007.06,0010.33,0006.73
2022-11-20 22:32:00,,0827.9,5.00,0.00,28.0,26.7,00.0,36.8,29.8,07.2,0000.0,0006.99,0010.22,0006.68
2022-11-20 22:33:00,,0827.9,5.00,0.00,28.0,26.7,00.0,36.8,29.8,07.2,0000.0,0006.93,0009.83,0006.62
2022-11-20 22:34:00,,0827.9,5.00,0.00,28.0,26.7,00.0,36.9,29.8,07.2,0000.0,0006.88,0009.36,0006.57
2022-11-20 22:35:00,,0827.9,5.00,0.00,28.0,26.7,00.0,36.9,29.8,07.1,0000.0,0006.80,0009.26,0006.51
2022-11-20 22:36:00,,0827.9,5.01,0.00,28.0,26.7,00.0,36.9,29.8,07.0,0000.0,0006.70,0009.14,0006.43
2022-11-20 22:37:00,,0828.0,5.01,0.00,28.0,26.7,00.0,36.9,29.8,07.0,0000.0,0006.63,0009.04,0006.38
2022-11-20 22:38:00,,0827.9,5.00,0.00,28.0,26.7,00.0,36.9,29.8,07.0,0000.0,0006.61,0008.96,0006.36
2022-11-20 22:39:00,,0828.0,4.99,0.00,28.0,26.7,00.0,36.9,29.8,07.0,0000.0,0006.60,0008.80,0006.36
2022-11-20 22:40:00,,0827.9,5.00,0.00,28.0,26.7,00.0,36.9,29.8,07.0,0000.0,0006.56,0008.63,0006.34
2022-11-20 22:41:00,,0828.0,5.01,0.00,28.0,26.7,00.0,36.9,29.8,07.0,0000.0,0006.52,0008.57,0006.31
2022-11-20 22:42:00,,0827.8,5.00,0.00,28.0,26.7,00.0,36.9,29.8,06.9,0000.0,0006.50,0008.78,0006.29
2022-11-20 22:43:00,,0827.8,4.99,0.00,28.0,26.6,00.0,36.9,29.8,06.9,0000.0,0006.48,0008.94,0006.27
2022-11-20 22:44:00,,0827.9,5.01,0.00,28.0,26.6,00.0,36.9,29.8,06.8,0000.0,0006.46,0008.92,0006.25
2022-11-20 22:45:00,,0827.9,5.01,0.00,28.0,26.6,00.0,36.9,29.8,06.7,0000.0,0006.43,0009.06,0006.23
2022-11-20 22:46:00,,0827.9,5.00,0.00,28.0,26.6,00.0,36.9,29.8,06.5,0000.0,0006.41,0009.41,0006.20
2022-11-20 22:47:00,,0827.9,4.99,0.00,28.0,26.6,00.0,36.9,29.8,06.4,0000.0,0006.39,0009.39,0006.18
2022-11-20 22:48:00,,0827.9,5.00,0.00,28.0,26.6,00.0,36.9,29.8,06.3,0000.0,0006.39,0009.45,0006.16
2022-11-20 22:49:00,,0827.9,5.00,0.00,28.0,26.6,00.0,36.9,29.8,06.4,0000.0,0006.35,0009.40,0006.12
2022-11-20 22:50:00,,0828.0,5.01,0.00,28.0,26.6,00.0,36.9,29.7,06.2,0000.0,0006.30,0009.33,0006.07
2022-11-20 22:51:00,,0827.8,5.01,0.00,28.0,26.6,00.0,36.9,29.7,06.2,0000.0,0006.26,0009.30,0006.03
2022-11-20 22:52:00,,0827.9,5.00,0.00,28.0,26.6,00.0,36.9,29.7,06.2,0000.0,0006.19,0009.22,0005.98
2022-11-20 22:53:00,,0827.9,4.98,0.00,28.0,26.6,00.0,36.9,29.8,06.2,0000.0,0006.14,0008.91,0005.93
2022-11-20 22:54:00,,0827.9,5.00,0.00,28.0,26.6,00.0,36.9,29.8,06.2,0000.0,0006.08,0008.72,0005.89
2022-11-20 22:55:00,,0827.9,5.01,0.00,28.0,26.6,00.0,36.9,29.8,06.1,0000.0,0006.04,0009.26,0005.86
2022-11-20 22:56:00,,0827.9,5.00,0.00,28.0,26.6,00.0,36.9,29.8,06.1,0000.0,0006.02,0009.04,0005.82
2022-11-20 22:57:00,,0827.9,5.00,0.00,27.9,26.5,00.0,36.9,29.7,06.1,0000.0,0005.98,0008.70,0005.79
2022-11-20 22:58:00,,0827.9,4.99,0.00,27.9,26.5,00.0,36.9,29.7,06.0,0000.0,0005.93,0008.63,0005.76
2022-11-20 22:59:00,,0827.9,4.99,0.00,27.9,26.5,00.0,36.9,29.7,06.0,0000.0,0005.87,0008.55,0005.73
